SCP
0 0 0 0 0 0 0 0 0 0 0 0 0 0 0 0 0 0 0 0 0 0 0 0 0 0 0 0 1 1 1 1 1 1 1 1 1 1
1 0 0 0 0 0 0 0 0 0 0 0 0 0 0 0 0 0 0 0 0 0 0 0 0 0 0 0 1 1 1 1 1 1 1 1 1 1
1 1 0 0 0 0 0 0 0 0 0 0 0 0 0 0 0 0 0 0 0 0 0 0 0 0 0 0 0 1 1 1 1 1 1 1 1 1
1 1 0 0 0 0 0 0 0 0 0 0 0 0 0 0 0 0 0 0 0 0 0 0 0 0 0 0 0 0 0 0 0 1 1 1 1 1
1 1 0 0 0 0 0 0 0 0 0 0 0 0 0 0 0 0 0 0 0 0 0 0 0 0 0 0 0 0 0 0 0 0 0 0 0 1
1 1 0 0 0 0 0 0 0 0 0 0 0 0 0 0 0 0 0 0 0 0 0 0 0 0 0 0 0 0 0 0 0 0 0 0 0 0
1 0 0 0 0 0 0 0 0 0 0 0 0 0 0 0 0 0 0 0 0 0 0 0 0 0 0 0 0 0 0 0 0 0 0 0 0 0
1 0 0 0 0 0 0 0 0 0 0 0 0 0 0 0 0 0 0 0 0 0 0 0 0 0 0 0 0 0 0 0 0 0 0 0 0 0
0 0 0 0 0 0 0 0 0 0 0 0 0 0 0 0 0 0 0 0 0 0 0 0 0 0 0 0 0 0 0 0 0 0 0 0 0 0
0 0 0 0 0 0 0 0 0 0 0 0 0 0 0 0 0 0 0 0 0 0 0 0 0 0 0 0 0 0 0 0 0 0 0 0 0 0
0 0 0 0 0 0 0 0 0 0 0 0 0 0 0 0 0 0 0 0 0 0 0 0 0 0 0 0 0 0 0 0 0 0 0 0 0 0
0 0 0 0 0 0 0 0 0 0 0 0 0 0 0 0 0 0 0 0 0 0 0 0 0 0 0 0 0 0 0 0 0 0 0 0 0 0
0 0 0 0 0 0 0 0 0 0 0 0 0 0 0 0 0 0 0 0 0 0 0 0 0 0 0 0 0 0 0 0 0 0 0 0 0 0
0 0 0 0 0 0 0 0 0 0 0 0 0 0 0 0 0 0 0 0 0 0 0 0 0 0 0 0 0 0 0 0 0 0 0 0 0 0
0 0 0 0 0 0 0 0 0 0 0 0 0 0 0 0 0 0 0 0 0 0 0 0 0 0 0 0 0 0 0 0 0 0 0 0 0 0
0 0 0 0 0 0 0 0 0 0 0 0 0 0 0 0 0 0 0 0 0 0 0 0 0 0 0 0 0 0 0 0 0 0 0 0 0 0
0 0 0 0 0 0 0 0 0 0 0 0 0 0 0 0 0 0 0 0 0 0 0 0 0 0 0 0 0 0 0 0 0 0 0 0 0 0
0 0 0 0 0 0 0 0 0 0 0 0 0 0 0 0 0 0 0 0 0 0 0 0 0 0 0 0 0 0 0 0 0 0 0 0 0 0
0 0 0 0 0 0 0 0 0 0 0 0 0 0 0 0 0 0 0 0 0 0 0 0 0 0 0 0 0 0 0 0 0 0 0 0 0 0
0 0 0 0 0 0 0 0 0 0 0 0 0 0 0 0 0 0 0 0 0 0 0 0 0 0 0 0 0 0 0 0 0 0 0 0 0 0
0 0 0 0 0 0 0 0 0 0 0 0 0 0 0 0 0 0 0 0 0 0 0 0 0 0 0 0 0 0 0 0 0 0 0 0 0 0
0 0 0 0 0 0 0 0 0 0 0 0 0 0 0 0 0 0 0 0 0 0 0 0 0 0 0 0 0 0 0 0 0 0 0 0 0 0
0 0 0 0 0 0 0 0 0 0 0 0 0 0 0 0 0 0 0 0 0 0 0 0 0 0 0 0 0 0 0 0 0 0 0 0 0 0
Wind_Speed
2 2 1 1 1 1 1 2 3 4 4 2 1 2 2 2 4 3 3 5 7 8 8 8 8 8 8 9 10 10 10 10 11 11 11 11 10 11
1 1 2 2 1 1 2 2 2 3 4 2 2 2 2 2 4 3 3 7 7 8 9 9 9 9 9 9 10 10 10 11 11 11 11 11 11 11
1 2 2 2 2 2 2 2 2 2 4 3 2 2 2 3 3 3 3 4 4 8 9 10 10 10 10 10 10 10 11 11 11 11 11 11 11 12
2 2 3 2 2 2 2 3 3 3 4 5 3 2 3 3 3 3 4 3 4 7 9 10 11 10 10 10 10 11 10 10 10 11 11 12 12 13
3 3 3 3 3 3 3 3 3 3 3 3 4 2 2 2 3 3 3 3 4 6 8 10 10 10 10 10 10 10 10 10 11 11 11 11 12 13
3 3 4 4 4 4 3 3 3 3 3 3 3 3 2 2 2 3 4 3 4 4 7 8 8 9 9 10 10 10 10 10 10 10 10 11 12 13
3 3 4 4 5 5 4 3 3 3 3 3 4 3 3 2 3 3 4 4 4 3 4 4 4 4 5 8 10 10 11 11 10 11 11 11 12 13
4 4 4 4 5 7 7 6 6 5 5 4 4 5 5 4 3 3 4 4 5 3 3 5 4 5 5 4 10 12 11 11 11 11 11 12 12 12
4 4 3 3 4 4 5 7 6 7 7 5 6 6 5 4 4 5 5 5 6 4 3 6 4 5 5 6 12 12 11 11 12 12 11 12 11 11
4 4 4 4 4 4 4 4 5 5 6 5 5 6 5 4 5 6 6 6 6 4 3 5 4 5 5 5 10 11 11 11 11 11 11 12 12 11
4 4 4 4 6 6 4 4 5 4 5 7 8 7 7 7 5 3 3 3 6 5 2 3 3 4 5 5 6 9 9 9 10 11 12 11 11 11
3 4 5 6 7 7 5 5 6 5 4 4 5 6 5 5 6 4 4 4 4 5 2 2 3 3 4 3 3 3 5 8 11 11 12 12 11 7
4 3 4 7 8 8 7 5 7 6 4 3 4 3 3 3 3 3 3 4 5 6 3 2 3 3 4 5 4 4 3 4 4 7 9 11 12 8
4 3 4 7 8 8 6 7 7 5 2 2 3 4 3 3 3 3 3 4 5 6 5 4 4 4 4 5 6 4 3 3 4 5 4 8 9 10
4 6 7 8 8 6 7 8 5 3 2 3 4 4 4 3 3 2 3 3 5 5 5 5 5 5 5 6 6 5 5 4 4 4 4 4 5 5
4 4 7 7 6 5 4 4 3 3 3 4 4 3 3 2 2 2 3 3 4 5 4 5 5 5 6 7 6 7 5 4 4 5 5 5 5 5
3 2 2 2 2 3 2 3 2 2 3 3 3 3 3 3 3 3 3 3 4 5 5 3 3 4 6 6 6 7 6 5 5 4 4 5 5 5
3 2 3 3 4 4 3 3 3 3 3 3 3 4 4 4 4 3 3 4 5 5 5 4 3 3 3 5 8 7 6 6 5 4 4 6 7 5
2 3 4 4 4 4 4 4 4 3 3 3 4 4 3 3 3 4 3 4 5 5 5 4 3 3 5 7 5 6 6 5 5 5 5 5 7 7
3 4 4 4 4 4 4 4 4 3 3 3 4 4 4 4 4 4 4 5 5 5 5 4 4 5 6 6 6 6 8 7 5 6 6 5 6 8
3 4 4 4 4 4 4 4 4 4 4 4 4 4 4 4 5 5 5 6 6 5 6 6 5 5 4 3 5 6 5 8 8 6 5 5 5 5
4 4 4 4 4 4 3 3 4 4 4 4 4 4 4 4 5 6 5 5 5 6 7 6 3 3 3 5 7 7 7 6 7 10 10 8 5 5
4 4 4 4 3 3 3 4 4 4 4 4 4 4 4 4 5 5 5 5 5 6 6 5 4 3 4 5 6 7 7 7 5 5 5 8 11 13
Wind_Direction
212 216 229 244 241 260 250 223 225 257 262 236 225 225 236 251 267 256 250 269 275 281 283 283 285 287 287 287 288 290 292 295 296 299 299 301 302 301
209 216 233 241 238 242 241 252 248 246 262 257 243 262 255 270 274 271 258 275 274 277 277 278 280 282 282 282 283 286 287 290 291 292 294 296 300 299
232 224 239 242 242 246 243 245 251 247 259 275 276 280 262 265 281 273 267 259 261 268 273 276 277 277 277 278 279 283 285 286 287 287 290 291 299 297
242 244 249 240 242 252 250 250 253 250 249 263 272 276 266 259 263 269 276 278 263 268 273 278 276 274 274 275 277 280 281 283 284 284 286 289 292 296
240 239 245 237 241 248 247 249 255 262 255 256 268 274 273 274 276 278 279 280 281 276 277 277 275 273 272 272 274 276 276 279 280 281 281 287 289 294
250 246 246 239 240 244 243 246 249 252 253 252 258 265 268 272 267 273 283 279 282 292 285 279 277 275 273 273 273 272 273 274 275 276 279 282 287 291
255 256 252 249 251 252 250 245 239 240 243 251 257 265 258 261 256 262 272 286 283 275 283 282 276 265 262 267 271 268 268 270 274 274 277 281 285 287
246 252 254 249 250 258 262 261 253 244 243 246 254 255 259 263 273 270 273 281 278 264 277 283 280 274 269 254 266 268 268 271 274 275 275 278 282 285
246 251 258 261 251 247 254 260 261 260 256 249 249 254 258 256 258 266 265 268 269 273 281 282 276 273 278 278 277 270 270 273 275 275 276 278 281 284
247 244 250 259 261 261 256 256 255 257 258 257 250 254 254 253 247 255 263 277 285 277 261 272 279 275 285 282 280 277 275 276 275 275 278 280 281 283
265 260 253 254 266 271 263 264 269 266 270 268 273 273 272 273 270 266 267 273 281 280 267 264 281 292 287 274 277 282 286 288 286 284 281 279 281 284
266 262 258 263 267 271 253 250 260 265 269 278 280 287 282 275 271 249 241 253 273 277 261 266 284 303 295 281 279 288 287 288 288 286 285 284 284 282
262 263 262 271 274 273 268 256 262 273 265 262 272 272 273 265 259 255 247 243 254 263 268 275 276 268 263 287 296 282 275 281 281 280 282 283 283 278
263 268 271 277 278 277 276 274 276 279 268 261 263 263 261 259 260 256 257 258 260 265 269 260 265 264 271 278 284 291 290 283 274 275 275 281 280 281
269 272 279 280 280 277 278 280 274 258 252 254 258 262 262 260 267 273 275 274 279 278 269 257 252 258 258 262 274 282 292 288 270 269 272 272 271 272
279 284 284 281 280 282 284 279 259 244 244 251 262 272 279 271 263 265 274 285 290 288 275 256 248 245 258 264 263 273 275 275 280 277 275 273 271 263
281 285 272 270 262 261 266 262 248 238 244 255 259 268 270 271 275 274 267 272 270 279 289 289 269 258 257 259 262 262 266 270 270 273 275 276 270 263
281 262 259 256 257 261 263 260 255 248 248 252 254 256 259 264 273 275 267 258 263 270 275 281 291 295 286 268 247 257 261 265 272 273 275 275 278 271
261 254 254 254 257 258 258 253 254 252 247 248 251 254 257 261 264 265 264 264 266 270 272 270 262 257 272 280 275 250 264 273 274 268 261 259 271 276
244 248 254 256 257 256 253 252 256 253 245 247 250 249 246 252 257 259 258 259 265 271 273 265 251 244 248 265 277 276 262 261 259 264 269 269 271 279
255 256 256 260 258 257 252 249 248 248 248 247 248 243 241 244 251 254 256 259 261 262 264 265 259 259 266 278 276 277 273 264 267 267 268 275 283 284
262 265 265 263 260 257 256 252 252 250 247 245 248 245 241 241 247 251 252 255 257 259 267 274 274 264 252 252 264 275 286 287 277 279 271 256 252 256
263 267 270 267 261 260 258 257 256 256 251 248 247 244 241 244 247 251 254 255 260 263 268 274 276 263 256 256 266 274 278 283 281 278 274 277 276 278